Stündliche Wetter Holuby

Heute, 22 Juni, Dienstag

Zeit Temperatur Niederschläge Wind Luftdruck Luftfeuchtigkeit
00:00 +19°C° 0 mm 2 m/S 738 mmHg 92%
01:00 +19°C° 0 mm 2 m/S 738 mmHg 92%
02:00 +19°C° 0 mm 2 m/S 738 mmHg 93%
03:00 +19°C° 0 mm 2 m/S 738 mmHg 94%
04:00 +19°C° 0 mm 2 m/S 738 mmHg 95%
05:00 +18°C° 0 mm 2 m/S 738 mmHg 95%
06:00 +20°C° 0 mm 3 m/S 738 mmHg 89%
07:00 +22°C° 0 mm 3 m/S 738 mmHg 83%
08:00 +25°C° 0 mm 3 m/S 739 mmHg 76%
09:00 +26°C° 0 mm 4 m/S 739 mmHg 71%
10:00 +27°C° 0 mm 4 m/S 739 mmHg 66%
11:00 +28°C° 0 mm 4 m/S 739 mmHg 62%
12:00 +29°C° 0 mm 4 m/S 739 mmHg 60%
13:00 +29°C° 0 mm 3 m/S 739 mmHg 58%
14:00 +30°C° 0 mm 3 m/S 739 mmHg 55%
15:00 +30°C° 0.2 mm 3 m/S 739 mmHg 59%
16:00 +29°C° 0.2 mm 3 m/S 739 mmHg 63%
17:00 +29°C° 0.2 mm 3 m/S 739 mmHg 67%
18:00 +28°C° 0.1 mm 2 m/S 739 mmHg 72%
19:00 +26°C° 0.1 mm 2 m/S 738 mmHg 78%
20:00 +25°C° 0.1 mm 2 m/S 738 mmHg 83%
21:00 +24°C° 0 mm 2 m/S 739 mmHg 86%
22:00 +23°C° 0 mm 2 m/S 739 mmHg 89%
23:00 +21°C° 0 mm 2 m/S 739 mmHg 92%

Morgen, 23 Juni, Mittwoch

Zeit Temperatur Niederschläge Wind Luftdruck Luftfeuchtigkeit
00:00 +21°C° 0 mm 2 m/S 739 mmHg 91%
01:00 +22°C° 0 mm 1 m/S 739 mmHg 91%
02:00 +21°C° 0 mm 1 m/S 739 mmHg 90%
03:00 +21°C° 0 mm 1 m/S 739 mmHg 91%
04:00 +21°C° 0 mm 1 m/S 739 mmHg 92%
05:00 +20°C° 0 mm 2 m/S 740 mmHg 93%
06:00 +23°C° 0 mm 2 m/S 740 mmHg 88%
07:00 +25°C° 0 mm 2 m/S 740 mmHg 82%
08:00 +26°C° 0 mm 2 m/S 740 mmHg 77%
09:00 +27°C° 0.1 mm 2 m/S 741 mmHg 73%
10:00 +29°C° 0.1 mm 2 m/S 741 mmHg 69%
11:00 +30°C° 0.1 mm 2 m/S 741 mmHg 64%
12:00 +30°C° 0.4 mm 1 m/S 741 mmHg 63%
13:00 +31°C° 0.4 mm 1 m/S 741 mmHg 61%
14:00 +31°C° 0.4 mm 1 m/S 741 mmHg 59%
15:00 +31°C° 0.1 mm 1 m/S 741 mmHg 60%
16:00 +31°C° 0.1 mm 1 m/S 741 mmHg 60%
17:00 +31°C° 0.1 mm 1 m/S 741 mmHg 61%
18:00 +30°C° 0.3 mm 1 m/S 741 mmHg 67%
19:00 +28°C° 0.3 mm 1 m/S 741 mmHg 72%
20:00 +26°C° 0.3 mm 1 m/S 741 mmHg 78%
21:00 +26°C° 0 mm 1 m/S 741 mmHg 80%
22:00 +25°C° 0 mm 1 m/S 741 mmHg 81%
23:00 +24°C° 0 mm 1 m/S 741 mmHg 82%

übermorgen, 24 Juni, Donnerstag

Zeit Temperatur Niederschläge Wind Luftdruck Luftfeuchtigkeit
00:00 +22°C° 0 mm 0 m/S 741 mmHg 83%
01:00 +21°C° 0 mm 0 m/S 741 mmHg 84%
02:00 +21°C° 0 mm 0 m/S 741 mmHg 85%
03:00 +21°C° 0.1 mm 0 m/S 741 mmHg 86%
04:00 +21°C° 0.1 mm 0 m/S 741 mmHg 87%
05:00 +21°C° 0.1 mm 0 m/S 741 mmHg 88%
06:00 +22°C° 0 mm 0 m/S 741 mmHg 85%
07:00 +23°C° 0 mm 0 m/S 741 mmHg 81%
08:00 +24°C° 0 mm 0 m/S 741 mmHg 78%
09:00 +26°C° 0.4 mm 0 m/S 742 mmHg 74%
10:00 +27°C° 0.4 mm 0 m/S 742 mmHg 69%
11:00 +28°C° 0.4 mm 0 m/S 742 mmHg 65%
12:00 +31°C° 0.1 mm 1 m/S 742 mmHg 61%
13:00 +31°C° 0.1 mm 1 m/S 742 mmHg 57%
14:00 +32°C° 0.1 mm 1 m/S 742 mmHg 53%
15:00 +32°C° 0 mm 1 m/S 742 mmHg 54%
16:00 +32°C° 0 mm 1 m/S 741 mmHg 56%
17:00 +32°C° 0 mm 2 m/S 741 mmHg 57%
18:00 +30°C° 0.1 mm 2 m/S 741 mmHg 63%
19:00 +28°C° 0.1 mm 1 m/S 741 mmHg 69%
20:00 +27°C° 0.1 mm 1 m/S 741 mmHg 75%
21:00 +26°C° 0 mm 1 m/S 741 mmHg 78%
22:00 +25°C° 0 mm 1 m/S 741 mmHg 80%
23:00 +24°C° 0 mm 1 m/S 741 mmHg 82%

25 Juni, Freitag

Zeit Temperatur Niederschläge Wind Luftdruck Luftfeuchtigkeit
00:00 +24°C° 0 mm 1 m/S 741 mmHg 84%
01:00 +23°C° 0 mm 1 m/S 741 mmHg 85%
02:00 +23°C° 0 mm 1 m/S 740 mmHg 87%
03:00 +23°C° 0 mm 2 m/S 740 mmHg 87%
04:00 +23°C° 0 mm 2 m/S 740 mmHg 88%
05:00 +23°C° 0 mm 2 m/S 740 mmHg 88%
06:00 +24°C° 0 mm 2 m/S 740 mmHg 83%
07:00 +26°C° 0 mm 3 m/S 740 mmHg 79%
08:00 +28°C° 0 mm 3 m/S 740 mmHg 74%
09:00 +29°C° 0 mm 4 m/S 740 mmHg 69%
10:00 +30°C° 0 mm 4 m/S 740 mmHg 63%
11:00 +32°C° 0 mm 4 m/S 740 mmHg 58%
12:00 +33°C° 0 mm 4 m/S 740 mmHg 56%
13:00 +33°C° 0 mm 4 m/S 740 mmHg 55%
14:00 +34°C° 0 mm 4 m/S 740 mmHg 53%
15:00 +34°C° 0 mm 4 m/S 739 mmHg 55%
16:00 +33°C° 0 mm 3 m/S 739 mmHg 58%
17:00 +33°C° 0 mm 3 m/S 739 mmHg 60%
18:00 +30°C° 0.1 mm 3 m/S 738 mmHg 67%
19:00 +28°C° 0.1 mm 3 m/S 738 mmHg 75%
20:00 +25°C° 0.1 mm 3 m/S 738 mmHg 82%
21:00 +24°C° 0.3 mm 2 m/S 738 mmHg 83%
22:00 +21°C° 0.3 mm 2 m/S 738 mmHg 83%
23:00 +21°C° 0.3 mm 1 m/S 738 mmHg 84%

26 Juni, Samstag

Zeit Temperatur Niederschläge Wind Luftdruck Luftfeuchtigkeit
00:00 +20°C° 0.5 mm 1 m/S 739 mmHg 87%
01:00 +20°C° 0.5 mm 1 m/S 739 mmHg 91%
02:00 +19°C° 0.5 mm 2 m/S 739 mmHg 94%
03:00 +19°C° 0 mm 2 m/S 739 mmHg 95%
04:00 +18°C° 0 mm 3 m/S 739 mmHg 96%
05:00 +18°C° 0 mm 3 m/S 739 mmHg 97%
06:00 +19°C° 0 mm 4 m/S 740 mmHg 93%
07:00 +19°C° 0 mm 5 m/S 740 mmHg 88%
08:00 +20°C° 0 mm 5 m/S 741 mmHg 84%
09:00 +21°C° 0 mm 5 m/S 741 mmHg 77%
10:00 +22°C° 0 mm 5 m/S 741 mmHg 70%
11:00 +23°C° 0 mm 5 m/S 741 mmHg 62%
12:00 +25°C° 0 mm 4 m/S 741 mmHg 62%
13:00 +25°C° 0 mm 4 m/S 741 mmHg 61%
14:00 +25°C° 0 mm 3 m/S 741 mmHg 60%
15:00 +25°C° 0 mm 3 m/S 741 mmHg 60%
16:00 +25°C° 0 mm 3 m/S 741 mmHg 61%
17:00 +25°C° 0 mm 3 m/S 740 mmHg 61%
18:00 +24°C° 0 mm 3 m/S 740 mmHg 67%
19:00 +22°C° 0 mm 3 m/S 740 mmHg 74%
20:00 +21°C° 0 mm 3 m/S 740 mmHg 80%
21:00 +20°C° 0 mm 2 m/S 740 mmHg 81%
22:00 +19°C° 0 mm 2 m/S 741 mmHg 83%
23:00 +18°C° 0 mm 2 m/S 741 mmHg 84%

27 Juni, Sonntag

Zeit Temperatur Niederschläge Wind Luftdruck Luftfeuchtigkeit
00:00 +18°C° 0 mm 2 m/S 741 mmHg 84%
01:00 +17°C° 0 mm 2 m/S 741 mmHg 84%
02:00 +17°C° 0 mm 2 m/S 741 mmHg 83%
03:00 +17°C° 0 mm 2 m/S 741 mmHg 84%
04:00 +17°C° 0 mm 2 m/S 741 mmHg 85%
05:00 +16°C° 0 mm 2 m/S 741 mmHg 86%
06:00 +17°C° 0 mm 2 m/S 741 mmHg 83%
07:00 +18°C° 0 mm 2 m/S 742 mmHg 80%
08:00 +19°C° 0 mm 2 m/S 742 mmHg 77%
09:00 +19°C° 0 mm 2 m/S 742 mmHg 76%
10:00 +20°C° 0 mm 2 m/S 742 mmHg 74%
11:00 +20°C° 0 mm 2 m/S 742 mmHg 73%
12:00 +20°C° 0 mm 2 m/S 742 mmHg 75%
13:00 +20°C° 0 mm 2 m/S 742 mmHg 78%
14:00 +19°C° 0 mm 2 m/S 742 mmHg 80%
15:00 +20°C° 0 mm 2 m/S 742 mmHg 77%
16:00 +22°C° 0 mm 1 m/S 742 mmHg 74%
17:00 +22°C° 0 mm 1 m/S 742 mmHg 72%
18:00 +21°C° 0 mm 1 m/S 742 mmHg 76%
19:00 +20°C° 0 mm 1 m/S 742 mmHg 79%
20:00 +19°C° 0 mm 1 m/S 742 mmHg 83%
21:00 +19°C° 0 mm 1 m/S 742 mmHg 85%
22:00 +18°C° 0 mm 1 m/S 742 mmHg 86%
23:00 +18°C° 0 mm 1 m/S 742 mmHg 87%
Mehr zeigen

Wir brauchen deine Erlaubnis

Meteoprog und unser Service Anbieter werden persönliche Daten aufbewahren, so wie Cookies, Geräte Bezeichnung oder ähnliche Technologien von deinem Gerät und Prozess, so wie Persönliche Daten Inhalte und Werbungen, genauso wie social Media und den Verkehr zu analysieren.

  • Aufbewahrung und/oder Zugang zu deiner Geräte Informationen.

    Cookies, Geräte Bezeichnung oder andere Informationen, können aufbewahrt oder Zugang zu deinem Gerät erhalten, für den Grund, der oben angegeben wird.

  • Personalisierte Werbung und Inhalte, Messungen, Einblick in das Publikum und Produkt Entwicklung.

    Werbungen und Inhalte können personalisiert werden, basierend auf ein Profil. Mehr Daten können besser personalisierte Werbungen und Inhalte hinzufügen. Werbung und Inhalte können gezeigt und gemessen werden. Einblicke über das Publikum, welche die Werbung gesehen haben und den Inhalt, können abgeleitet werden. So wie Daten können genutzt werden, um es zu verbessern oder die Benutzer Erfahrung zu verbessern das System und die Software.

Wenn du “Ich stimme zu” klickst, erlaubst du uns, die Cookies zu benutzen die Geräte Bezeichnung, den Web oder ähnliche Technologien zu benutzen. Deine Settings, können in deinem Gerät bei deinem Browser geändert werden.

Für den bestimmten Zweck, berechtigten Interessen beruhen darauf, mehr als auf den Inhalt. Du kannst mehr darüber in unseren Privaten und Cookie Politik lesen.